PROGRESS-MS 27

Last updated on Thu Sep 12 2024 00:02:08 GMT+0000 (Coordinated Universal Time)

1 59913U 24103A 24255.47773014 .00027278 00000+0 50262-3 0 9991 2 59913 51.6363 247.9211 0007618 339.7676 20.3009 15.48914954471930
UTC large
Height (km)
Speed (km/s)
/
Latitude / Longitude
Inclination (degrees)
Orbital Period (minutes)
Azimuth
Elevation
Range (km)
Doppler Factor

Next 0 passes for location: London (51.5072 / 0.1276)

Sorry there are no passes over London.